Погода в Гали

Абхазия     42°37′38″N   41°44′12″E
темп.,
°C
ветер,
м/с
пор.,
м/с
влажн.,
%
обл.,
%
осадки,
мм/ч
давл.,
гПа
погр.,
м
4 августа, ср
ср400:00+21св118754 0.6 101520
03:00+19всв218550 1.4 101520
06:00+20св218249 0.9 101519
09:00+26юз21680 0.9 1015513
12:00+29зюз32560 0.1 10141078
15:00+28зюз436533 0.1 1013985
18:00+25зюз228877 0.3 1014403
21:00+22ююв119792 0.9 101547
5 августа, чт
чт500:00+21всв219574 1.3 101524
03:00+20св229072 1.4 101528
06:00+20св228525 0.1 101527
09:00+26юз217315 0.1 1014692
12:00+29зюз32573 0.1 10131274
15:00+29зюз336225 0.1 10111012
18:00+26зюз338113 0.1 1010392
21:00+22всв119761 0.7 101214
6 августа, пт
пт600:00+21св21932 0.1 101218
03:00+19св32810 0.1 101028
06:00+21св32640 0.0 100930
09:00+28зюз22500 0.0 1007406
12:00+32зюз22455 0.0 1006753
15:00+36зюз15270 0.0 10031339
18:00+29ююв236814 0.0 1003120
21:00+25св116575 0.0 100519
7 августа, сб
сб700:00+24св2350100 0.0 100533
03:00+26св453295 0.0 100278
06:00+24св444238 0.0 100257
09:00+32ююз013594 0.0 1003325
12:00+35юв132999 0.0 1003701
15:00+32с2239100 0.0 100399
18:00+25в3571100 0.1 1009122
21:00+23св3365100 0.3 100955
8 августа, вс
вс800:00+23ссв345617 0.0 100862
03:00+22св33615 0.2 100848
06:00+22св22617 0.1 100927
09:00+28зюз22495 0.1 1010501
12:00+30зюз32467 0.0 10101012
15:00+30зюз32521 0.0 10101162
18:00+27ююз227284 0.1 1011296
21:00+23всв229539 2.2 101432